Hopkins, SC

12:29 PM EST on February 27, 2017 (GMT -0500)
McEntire Angs

Weather History for KMMT - December, 2012

Change the Weather History Date:

Monday, December 31, 2012

  Actual Average Record
Temperature  
Mean Temperature 40 °F -  
Max Temperature 57 °F 55 °F 78 °F (1996)
Min Temperature 23 °F 32 °F 23 °F (2003)
Degree Days  
Heating Degree Days 25    
Moisture  
Dew Point 31 °F    
Average Humidity 64    
Maximum Humidity 91    
Minimum Humidity 36    
Precipitation  
Precipitation 0.00 in - - ()
Sea Level Pressure  
Sea Level Pressure 30.32 in    
Wind  
Wind Speed 3 mph (SSW)    
Max Wind Speed 12 mph    
Max Gust Speed -    
Visibility 10 miles    
Events      
Averages and records for this station are not official NWS values.
T = Trace of Precipitation, MM = Missing Value Source: NWS Daily Summary

Daily Weather History Graph

Daily Weather History Graph

Search for Another Location

Airport or City:

Trip Planner

Search our weather history database for the weather conditions in past years. The results will help you decide how hot, cold, wet, or windy it might be!

Date:

Astronomy

Dec. 31, 2012 Rise Set
Actual Time 7:28 AM EST 5:24 PM EST
Civil Twilight 7:00 AM EST 5:52 PM EST
Nautical Twilight 6:29 AM EST 6:23 PM EST
Astronomical Twilight 5:59 AM EST 6:54 PM EST
Moon 8:43 PM EST (12/31) 9:18 AM EST (12/31)
Length of Visible Light 10h 51m
Length of Day
9h 56m
Waning Gibbous, 90% of the Moon is Illuminated
Dec 31
Waning Gibbous
Jan 4
Last Quarter
Jan 11
New
Jan 18
First Quarter
Jan 26
Full

Hourly Weather History & Observations

Time (EST) Temp. Windchill Dew Point Humidity Pressure Visibility Wind Dir Wind Speed Gust Speed Precip Events Conditions
12:55 AM 25.9 °F - 23.4 °F 90% 30.40 in 10.0 mi Calm Calm - N/A   Clear
1:55 AM 25.2 °F - 22.8 °F 91% 30.38 in 10.0 mi Calm Calm - N/A   Clear
2:55 AM 24.4 °F - 22.1 °F 91% 30.40 in 10.0 mi Calm Calm - N/A   Clear
3:55 AM 23.7 °F 19.3 °F 20.7 °F 88% 30.40 in 10.0 mi NNW 3.5 mph - N/A   Clear
4:55 AM 24.4 °F - 22.3 °F 91% 30.39 in 10.0 mi Calm Calm - N/A   Clear
5:55 AM 24.4 °F - 21.9 °F 90% 30.41 in 10.0 mi Calm Calm - N/A   Mostly Cloudy
6:55 AM 25.3 °F - 22.5 °F 89% 30.42 in 10.0 mi Calm Calm - N/A   Mostly Cloudy
7:55 AM 28.2 °F - 25.5 °F 90% 30.42 in 10.0 mi Calm Calm - N/A   Overcast
8:55 AM 34.7 °F - 28.9 °F 79% 30.45 in 10.0 mi Calm Calm - N/A   Scattered Clouds
9:55 AM 41.0 °F 38.0 °F 28.0 °F 60% 30.42 in 10.0 mi SW 4.6 mph - N/A   Clear
10:55 AM 47.3 °F - 26.1 °F 44% 30.40 in 10.0 mi South 5.8 mph - N/A   Clear
11:55 AM 51.3 °F - 25.0 °F 36% 30.38 in 10.0 mi SSW 5.8 mph - N/A   Clear
12:55 PM 53.8 °F - 27.1 °F 36% 30.30 in 10.0 mi SSW 11.5 mph - N/A   Partly Cloudy
1:22 PM 55.4 °F - 30.2 °F 38% 30.30 in 10.0 mi SSW 9.2 mph - N/A   Mostly Cloudy
1:30 PM 55.4 °F - 30.2 °F 38% 30.29 in 10.0 mi WSW 8.1 mph - N/A   Mostly Cloudy
1:55 PM 55.9 °F - 30.7 °F 38% 30.29 in 10.0 mi WSW 8.1 mph - N/A   Scattered Clouds
2:55 PM 57.9 °F - 34.3 °F 41% 30.27 in 10.0 mi SW 10.4 mph - N/A   Clear
3:55 PM 57.9 °F - 36.9 °F 45% 30.24 in 10.0 mi SW 10.4 mph - N/A   Partly Cloudy
4:55 PM 56.3 °F - 38.1 °F 51% 30.24 in 10.0 mi Calm Calm - N/A   Clear
5:55 PM 54.5 °F - 39.4 °F 57% 30.25 in 10.0 mi SSW 3.5 mph - N/A   Mostly Cloudy
6:55 PM 54.3 °F - 40.3 °F 59% 30.24 in 10.0 mi South 6.9 mph - N/A   Overcast
7:55 PM 54.0 °F - 40.5 °F 60% 30.23 in 10.0 mi South 4.6 mph - N/A   Overcast
8:55 PM 53.2 °F - 40.5 °F 62% 30.22 in 10.0 mi South 5.8 mph - N/A   Overcast
9:55 PM 52.9 °F - 40.5 °F 63% 30.20 in 10.0 mi South 5.8 mph - N/A   Overcast
10:55 PM 52.3 °F - 40.8 °F 65% 30.19 in 10.0 mi South 4.6 mph - N/A   Overcast
11:55 PM 52.0 °F - 41.5 °F 68% 30.18 in 10.0 mi SSW 4.6 mph - N/A   Overcast